Regional Weather Roundup
Issued by NWS

Home | Current Version | Previous Version | Text Only | Print | Product List | Glossary Off
Versions: 1 2 3 4 5 6 7 8 9 10 11 12 13 14 15 16 17 18 19 20 21 22 23 24 25 26 27 28 29 30 31 32 33 34 35 36 37 38 39 40 41 42 43 44 45 46 47 48 49 50

000
ASUS43 KLOT 301608
RWRIL

ILLINOIS REGIONAL WEATHER ROUNDUP
NATIONAL WEATHER SERVICE CHICAGO/ROMEOVILLE IL
1100 AM CDT MON MAR 30 2015

NOTE: "FAIR" INDICATES FEW OR NO CLOUDS BELOW 12,000 FEET WITH NO
SIGNIFICANT WEATHER AND/OR OBSTRUCTIONS TO VISIBILITY.

* THESE STATIONS ARE NOT UNDER NWS QUALITY CONTROL. THEY ALSO MAY NOT
  REPORT WEATHER SUCH AS PRECIPITATION OR FOG.

ILZ001-002-007-009-015-016-024-301700-
NORTHWEST ILLINOIS

CITY           SKY/WX    TMP DP  RH WIND       PRES   REMARKS
MOLINE         SUNNY     59  26  28 W17G25    30.08F
STERLING*      SUNNY     54  34  47 W12       30.08F
SAVANNA*       SUNNY     52  32  45 SW5       30.06F
$$

ILZ003-004-008-010-011-017-018-301700-
NORTH CENTRAL ILLINOIS

CITY           SKY/WX    TMP DP  RH WIND       PRES   REMARKS
ROCKFORD       MOSUNNY   54  28  36 W14       30.06F
FREEPORT*      SUNNY     51  34  53 SW9       30.06F
ROCHELLE*      SUNNY     50  36  58 SW13      30.07F
DE KALB*       MOSUNNY   49  33  54 W9        30.07S
PERU*          SUNNY     55  32  42 W9        30.10F
$$

ILZ005-006-012>014-019>023-301700-
NORTHEAST ILLINOIS

CITY           SKY/WX    TMP DP  RH WIND       PRES   REMARKS
CHICAGO-OHARE  PTSUNNY   51  29  42 W13       30.05F
CHICAGO-MIDWAY MOSUNNY   54  29  38 W12       30.07S
AURORA         MOSUNNY   52  32  46 W14       30.07F
LANSING*       SUNNY     53  25  33 W13       30.08S
JOLIET*        SUNNY     54  33  45 W9        30.09S
WAUKEGAN       MOSUNNY   52  28  39 VRB7G17   30.02F
DUPAGE AIRPORT MOSUNNY   53  30  41 W13       30.06S
KANKAKEE*      SUNNY     52  37  55 W13       30.11R
WHEELING       MOSUNNY   53  26  35 W13       30.06F
MORRIS*        MOSUNNY   52  33  48 W13       30.08F
ROMEOVILLE*    MOSUNNY   53  29  40 W12G20    30.08S
NORTHERLY ISL    N/A     51  25  36 W8          N/A
$$

LMZ740>746-301700-
SOUTHERN LAKE MICHIGAN

STATION/POSITION SKY/WX   TEMP    WIND        PRES    VSBY  WAVE
                          AIR SEA DIR/SP/G                  HT/PER
                          (F)     (DEG/KT/KT) (MB)    (MI)  (FT/S)
HARRISON CRIB              46     270/ 13/ 16   N/A
BURNHAM HARBOR             52     240/ 10/ 13   N/A
CALUMET HARBOR             51     270/  9/ 13 1017.0R
BURNS HARBOR               42     260/ 10/ 12 1018.6R
MICHIGAN CITY              38     220/ 12/ 13   N/A
$$

ILZ025>027-034>036-040-047-049-050-058-095>099-301700-
WEST-CENTRAL ILLINOIS

CITY           SKY/WX    TMP DP  RH WIND       PRES   REMARKS
QUINCY         SUNNY     59  29  31 SW13      30.16S
GALESBURG*     SUNNY     58  32  37 SW12      30.11S
MACOMB*        SUNNY     59  31  34 W16       30.14F
JACKSONVILLE*  SUNNY     61  31  32 SW7       30.15F
PITTSFIELD*    SUNNY     59  30  32 SW10      30.18R
$$

ILZ028>032-037-038-041>044-048-051>054-059>061-301700-
CENTRAL ILLINOIS

CITY           SKY/WX    TMP DP  RH WIND       PRES   REMARKS
PONTIAC        SUNNY     54  37  51 W12       30.12F
BLOOMINGTON    SUNNY     56  31  38 W15       30.13S
DECATUR        SUNNY     57  32  38 W7        30.16S
PEORIA         SUNNY     59  28  30 W8G20     30.12F
LACON*         SUNNY     54  30  39 W8        30.10F
LINCOLN*       SUNNY     58  32  37 W5        30.14S
SPRINGFIELD    SUNNY     59  33  37 W12       30.15F
TAYLORVILLE    SUNNY     54  34  47 W8        30.16S
$$

ILZ033-039-045-046-055>057-062-063-301700-
EAST-CENTRAL ILLINOIS

CITY           SKY/WX    TMP DP  RH WIND       PRES   REMARKS
CHAMPAIGN      SUNNY     55  35  47 W13       30.14R
DANVILLE*      SUNNY     51  34  52 W7G17     30.11S
RANTOUL*       SUNNY     55  36  48 W10       30.13S
MATTOON        SUNNY     55  33  43 W10       30.16R
PARIS*         SUNNY     53  39  60 W9        30.16S
$$

ILZ079-100>102-301700-
SOUTHWEST ILLINOIS

CITY           SKY/WX    TMP DP  RH WIND       PRES   REMARKS
BELLEVILLE     SUNNY     59  34  39 VRB3      30.20R
CAHOKIA*       SUNNY     58  31  35 SW5       30.20S
SPARTA*        MOSUNNY   57  35  43 CALM      30.23S
$$

ILZ064>066-069>071-074>076-080>082-084>086-088>090-092>094-301700-
SOUTH-CENTRAL ILLINOIS

CITY           SKY/WX    TMP DP  RH WIND       PRES   REMARKS
CARBONDALE     MOSUNNY   58  32  37 N5        30.23S
CAIRO*         PTSUNNY   59  33  37 N5        30.23S
EFFINGHAM*     SUNNY     56  26  31 W6        30.20S
MARION         MOSUNNY   57  30  35 NE7       30.24R
MT. VERNON     SUNNY     57  28  33 W6        30.22R
CENTRALIA*     SUNNY     57  27  31 NW3       30.20S
SALEM*         SUNNY     59  29  32 SW6       30.20S
METROPOLIS*    MOSUNNY   60  31  33 N7        30.22F
$$

ILZ067-068-072-073-078-083-087-091-301700-
SOUTHEAST ILLINOIS

CITY           SKY/WX    TMP DP  RH WIND       PRES   REMARKS
LAWRENCEVILLE  SUNNY     55  34  45 W7        30.20R
FLORA*         SUNNY     56  30  37 NW6       30.21R
FAIRFIELD*     SUNNY     57  31  37 CALM      30.19F
HARRISBURG*    SUNNY     56  30  37 CALM      30.23F
ROBINSON*      SUNNY     53  36  51 W9        30.20R
CARMI*         SUNNY     57  25  29 NW6       30.22S
$$

ABBREVIATIONS USED IN REMARKS
   TC - TEMPERATURE IN CELSIUS
  WCI - WIND CHILL INDEX
   HX - HEAT INDEX
  VSB - VISIBILITY
$$



USA.gov is the U.S. government's official web portal to all federal, state and local government web resources and services.